Flag for U.S.A. Weather past 2 weeks in Atascadero, California, U.S.A.

Now
35 °F

Clear.


Feels Like: 32 °F
Forecast: 35 / 56 °F
Wind: 3 mph from Southeast

Location: Paso Robles Municipal Airport

Current Time: Dec 28, 2014 at 3:05:22 AM

Latest Report: Dec 28, 2014 at 1:53 AM


Visibility: 10 mi

Pressure: 30.33 "Hg

Humidity: 88%

Dew point: 32 °F

Location of AtascaderoLocation

Historic Weather in Atascadero — Graph

°F

Atascadero temperature yesterday

Maximum temperature yesterday: 58 °F (at 2:53 PM)
Minimum temperature yesterday: 29 °F (at 6:53 AM)
Average temperature yesterday: 41 °F

Past Weeks' High & Low Weather Summary

 TemperatureHumidityPressure
High65 °F (Dec 22, 2:53 PM)97% (Dec 13, 7:53 AM)30.38 "Hg (Dec 13, 7:53 AM)
Low29 °F (Dec 27, 6:53 AM)38% (Dec 26, 2:53 PM)29.87 "Hg (Dec 15, 1:53 PM)
Average50 °F82%30.13 "Hg
* Reported Dec 13 1:01 AM — Dec 28 1:53 AM, Atascadero, Weather by CustomWeather, © 2014

Note: Actual official high and low records may vary slightly from our data, if they occured in-between our weather recording intervals... More about our weather records

Advertising

Atascadero weather history for previous 24 hours

 ConditionsComfort  
Time TempWeatherWind HumidityBarometerVisibility
1:53 AM
Dec 28
35 °FClear.3 mph88%30.33 "Hg10 mi
12:53 AM35 °FClear.5 mph88%30.34 "Hg10 mi
11:53 PM
Dec 27
36 °FClear.No wind89%30.35 "Hg10 mi
10:53 PM39 °FClear.5 mph82%30.37 "Hg10 mi
9:53 PM39 °FClear.No wind82%30.37 "Hg10 mi
8:53 PM42 °FClear.3 mph79%30.37 "Hg10 mi
7:53 PM41 °FClear.5 mph86%30.37 "Hg10 mi
6:53 PM44 °FClear.No wind79%30.35 "Hg10 mi
5:53 PM51 °FClear.3 mph61%30.34 "Hg10 mi
4:53 PM53 °FSunny.3 mph59%30.32 "Hg10 mi
3:53 PM57 °FSunny.6 mph47%30.31 "Hg10 mi
2:53 PM58 °FSunny.No wind47%30.31 "Hg10 mi
1:53 PM55 °FSunny.3 mph51%30.31 "Hg10 mi
12:53 PM52 °FSunny.3 mph57%30.32 "Hg10 mi
11:53 AM47 °FSunny.No wind64%30.34 "Hg10 mi
10:53 AM42 °FSunny.No wind71%30.38 "Hg10 mi
9:53 AM38 °FSunny.No wind79%30.37 "Hg10 mi
8:53 AM34 °FSunny.No wind82%30.37 "Hg10 mi
7:53 AM31 °FSunny.No wind89%30.34 "Hg10 mi
6:53 AM29 °FClear.No wind89%30.32 "Hg10 mi
5:53 AM30 °FClear.No wind89%30.31 "Hg10 mi
4:53 AM31 °FClear.No wind85%30.29 "Hg10 mi
3:53 AM32 °FClear.3 mph85%30.29 "Hg10 mi
Weather by CustomWeather, © 2014

See weather overviewHow to use our weather pages